Regional Weather Roundup
Issued by NWS Goodland, KS

Home | Current Version | Previous Version | Graphics & Text | Print | Product List | Glossary On
Versions: 1 2 3 4 5 6 7 8 9 10 11 12 13 14 15 16 17 18 19 20 21 22 23 24 25 26 27 28 29 30 31 32 33 34 35 36 37 38 39 40 41 42 43 44 45 46 47 48 49 50
000
ASUS43 KGLD 271559
RWRGLD

GOODLAND FORECAST AREA HOURLY WEATHER ROUNDUP
NATIONAL WEATHER SERVICE GOODLAND KS
1000 AM MDT TUE SEP 27 2016

...OFFICIAL OBSERVATIONS...

CITY           SKY/WX    TMP DP  RH WIND       PRES   REMARKS
GOODLAND KS    SUNNY     73  41  31 SW8       30.18S
HILL CITY KS   SUNNY     72  50  45 W5        30.12F
IMPERIAL NEB   SUNNY     67  42  40 W7        30.16S
MCCOOK NEB     SUNNY     65  46  50 W8        30.14S HAZE
AKRON CO       SUNNY     65  36  34 W10       30.22S
BURLINGTON CO  SUNNY     72  35  25 W10       30.21F
LIMON CO       SUNNY     69  30  23 CALM      30.25F
$$

...UNOFFICIAL OBSERVATIONS...

CITY           SKY/WX    TMP DP  RH WIND       PRES   REMARKS
COLBY KS       SUNNY     72  46  40 W5        30.18S
LENORA KS        N/A     66  32  28 MISG        N/A
NORTON KS      SUNNY     70  37  30 W3        30.11
SHARON SPRINGS   N/A     73  45  37 CALM        N/A
KIT CARSON CO    N/A     67  40  38 CALM        N/A
$$



USA.gov is the U.S. government's official web portal to all federal, state and local government web resources and services.